• In Hungary
  • List of Countries
  • For 7 days
  • Water Temperature
  • Satellite Maps
  • Weather Map
  • News
  • Weather Widgets
  • user-avatar
    Login

    Hourly Weather Worcester

    Today, 11 December, Monday

    Time Temperature Precipitation Wind Pressure Humidity
    00:00 -2°C° 0.4 mm 4 mps 732 mmHg 95%
    01:00 -2°C° 0.4 mm 5 mps 732 mmHg 95%
    02:00 -2°C° 0.4 mm 5 mps 732 mmHg 94%
    03:00 -3°C° 0.4 mm 6 mps 733 mmHg 94%
    04:00 -3°C° 0.1 mm 6 mps 733 mmHg 93%
    05:00 -3°C° 0.1 mm 6 mps 733 mmHg 92%
    06:00 -3°C° 0.1 mm 6 mps 734 mmHg 91%
    07:00 -4°C° 0.1 mm 6 mps 734 mmHg 90%
    08:00 -4°C° 0.1 mm 6 mps 735 mmHg 89%
    09:00 -4°C° 0.1 mm 6 mps 735 mmHg 89%
    10:00 -4°C° 0 mm 6 mps 736 mmHg 88%
    11:00 -3°C° 0 mm 6 mps 736 mmHg 88%
    12:00 -3°C° 0 mm 6 mps 737 mmHg 88%
    13:00 -2°C° 0 mm 5 mps 737 mmHg 87%
    14:00 -4°C° 0 mm 5 mps 738 mmHg 87%
    15:00 -4°C° 0 mm 5 mps 738 mmHg 86%
    16:00 -4°C° 0 mm 4 mps 739 mmHg 86%
    17:00 -4°C° 0 mm 4 mps 740 mmHg 86%
    18:00 -5°C° 0 mm 3 mps 741 mmHg 86%
    19:00 -5°C° 0 mm 3 mps 742 mmHg 87%
    20:00 -5°C° 0 mm 3 mps 742 mmHg 88%
    21:00 -5°C° 0 mm 3 mps 743 mmHg 89%
    22:00 -4°C° 0 mm 2 mps 744 mmHg 89%
    23:00 -4°C° 0 mm 2 mps 745 mmHg 90%

    Tomorrow, 12 December, Tuesday

    Time Temperature Precipitation Wind Pressure Humidity
    00:00 -4°C° 0 mm 2 mps 745 mmHg 90%
    01:00 -4°C° 0 mm 2 mps 746 mmHg 90%
    02:00 -4°C° 0 mm 2 mps 747 mmHg 90%
    03:00 -4°C° 0 mm 2 mps 748 mmHg 90%
    04:00 -4°C° 0 mm 2 mps 748 mmHg 90%
    05:00 -4°C° 0 mm 2 mps 748 mmHg 90%
    06:00 -4°C° 0 mm 2 mps 749 mmHg 90%
    07:00 -3°C° 0 mm 2 mps 749 mmHg 91%
    08:00 -3°C° 0 mm 2 mps 750 mmHg 91%
    09:00 -2°C° 0 mm 2 mps 750 mmHg 91%
    10:00 -2°C° 0 mm 2 mps 751 mmHg 93%
    11:00 -1°C° 0 mm 2 mps 751 mmHg 94%
    12:00 +1°C° 0 mm 2 mps 751 mmHg 96%
    13:00 0°C° 0 mm 3 mps 751 mmHg 96%
    14:00 +1°C° 0 mm 3 mps 751 mmHg 96%
    15:00 +1°C° 0 mm 3 mps 751 mmHg 96%
    16:00 +1°C° 0.1 mm 3 mps 751 mmHg 97%
    17:00 +1°C° 0.1 mm 3 mps 751 mmHg 97%
    18:00 +1°C° 0.1 mm 3 mps 751 mmHg 98%
    19:00 0°C° 0.3 mm 4 mps 750 mmHg 98%
    20:00 0°C° 0.3 mm 4 mps 750 mmHg 98%
    21:00 +1°C° 0.3 mm 5 mps 749 mmHg 99%
    22:00 +1°C° 0.1 mm 5 mps 748 mmHg 99%
    23:00 +1°C° 0.1 mm 5 mps 748 mmHg 99%

    Day after tomorrow, 13 December, Wednesday

    Time Temperature Precipitation Wind Pressure Humidity
    00:00 +1°C° 0.1 mm 5 mps 747 mmHg 99%
    01:00 +1°C° 0.1 mm 5 mps 747 mmHg 99%
    02:00 +1°C° 0.1 mm 5 mps 747 mmHg 99%
    03:00 +1°C° 0.1 mm 4 mps 747 mmHg 99%
    04:00 +1°C° 0.3 mm 4 mps 746 mmHg 98%
    05:00 +1°C° 0.3 mm 4 mps 746 mmHg 98%
    06:00 +1°C° 0.3 mm 4 mps 746 mmHg 98%
    07:00 +1°C° 0.2 mm 4 mps 746 mmHg 98%
    08:00 +1°C° 0.2 mm 4 mps 746 mmHg 98%
    09:00 +1°C° 0.2 mm 5 mps 746 mmHg 98%
    10:00 +1°C° 0 mm 5 mps 746 mmHg 98%
    11:00 +2°C° 0 mm 5 mps 746 mmHg 97%
    12:00 +2°C° 0 mm 6 mps 745 mmHg 97%
    13:00 +2°C° 0 mm 6 mps 745 mmHg 94%
    14:00 +2°C° 0 mm 5 mps 745 mmHg 90%
    15:00 +1°C° 0 mm 5 mps 745 mmHg 87%
    16:00 +1°C° 0.1 mm 6 mps 745 mmHg 87%
    17:00 +1°C° 0.1 mm 6 mps 745 mmHg 86%
    18:00 +1°C° 0.1 mm 6 mps 745 mmHg 86%
    19:00 +1°C° 0 mm 6 mps 745 mmHg 84%
    20:00 +1°C° 0 mm 6 mps 745 mmHg 82%
    21:00 -1°C° 0 mm 7 mps 745 mmHg 80%
    22:00 -1°C° 0 mm 6 mps 745 mmHg 81%
    23:00 0°C° 0 mm 5 mps 744 mmHg 82%

    14 December, Thursday

    Time Temperature Precipitation Wind Pressure Humidity
    00:00 0°C° 0 mm 5 mps 744 mmHg 82%
    01:00 0°C° 0.6 mm 4 mps 743 mmHg 84%
    02:00 0°C° 0.6 mm 4 mps 742 mmHg 87%
    03:00 +1°C° 0.6 mm 3 mps 741 mmHg 89%
    04:00 0°C° 0.1 mm 4 mps 741 mmHg 89%
    05:00 0°C° 0.1 mm 4 mps 740 mmHg 90%
    06:00 0°C° 0.1 mm 4 mps 739 mmHg 90%
    07:00 0°C° 0 mm 5 mps 739 mmHg 88%
    08:00 0°C° 0 mm 5 mps 740 mmHg 86%
    09:00 -1°C° 0 mm 5 mps 740 mmHg 84%
    10:00 0°C° 0 mm 5 mps 740 mmHg 83%
    11:00 0°C° 0 mm 5 mps 740 mmHg 82%
    12:00 +1°C° 0 mm 5 mps 740 mmHg 81%
    13:00 0°C° 0 mm 5 mps 740 mmHg 82%
    14:00 0°C° 0 mm 4 mps 740 mmHg 83%
    15:00 0°C° 0 mm 4 mps 740 mmHg 84%
    16:00 0°C° 0 mm 4 mps 740 mmHg 84%
    17:00 0°C° 0 mm 5 mps 740 mmHg 85%
    18:00 0°C° 0 mm 5 mps 741 mmHg 85%
    19:00 0°C° 0 mm 4 mps 741 mmHg 85%
    20:00 -1°C° 0 mm 4 mps 741 mmHg 85%
    21:00 -1°C° 0 mm 4 mps 741 mmHg 85%
    22:00 0°C° 0 mm 3 mps 741 mmHg 87%
    23:00 +1°C° 0 mm 2 mps 741 mmHg 88%

    15 December, Friday

    Time Temperature Precipitation Wind Pressure Humidity
    00:00 -1°C° 0 mm 2 mps 741 mmHg 89%
    01:00 -1°C° 0 mm 2 mps 741 mmHg 89%
    02:00 +1°C° 0 mm 1 mps 741 mmHg 90%
    03:00 +1°C° 0 mm 1 mps 741 mmHg 90%
    04:00 +1°C° 0 mm 1 mps 742 mmHg 90%
    05:00 -1°C° 0 mm 2 mps 743 mmHg 90%
    06:00 -1°C° 0 mm 2 mps 743 mmHg 89%
    07:00 -1°C° 0 mm 3 mps 744 mmHg 89%
    08:00 -1°C° 0 mm 3 mps 745 mmHg 89%
    09:00 0°C° 0 mm 3 mps 745 mmHg 88%
    10:00 0°C° 0 mm 4 mps 746 mmHg 88%
    11:00 +1°C° 0 mm 5 mps 747 mmHg 87%
    12:00 +1°C° 0 mm 6 mps 747 mmHg 87%
    13:00 +1°C° 0 mm 6 mps 748 mmHg 87%
    14:00 +1°C° 0 mm 6 mps 749 mmHg 87%
    15:00 +1°C° 0 mm 6 mps 749 mmHg 86%
    16:00 -1°C° 0 mm 6 mps 750 mmHg 87%
    17:00 0°C° 0 mm 5 mps 751 mmHg 87%
    18:00 -1°C° 0 mm 5 mps 752 mmHg 87%
    19:00 -1°C° 0 mm 4 mps 753 mmHg 87%
    20:00 -1°C° 0 mm 4 mps 754 mmHg 87%
    21:00 -1°C° 0 mm 3 mps 755 mmHg 87%
    22:00 -1°C° 0 mm 3 mps 755 mmHg 87%
    23:00 -1°C° 0 mm 3 mps 755 mmHg 87%

    16 December, Saturday

    Time Temperature Precipitation Wind Pressure Humidity
    00:00 -1°C° 0 mm 3 mps 756 mmHg 87%
    01:00 -1°C° 0 mm 3 mps 756 mmHg 87%
    02:00 -1°C° 0 mm 3 mps 756 mmHg 87%
    03:00 -1°C° 0 mm 3 mps 756 mmHg 87%
    04:00 -1°C° 0 mm 3 mps 757 mmHg 88%
    05:00 -1°C° 0 mm 3 mps 757 mmHg 89%
    06:00 -1°C° 0 mm 3 mps 757 mmHg 89%
    07:00 -1°C° 0 mm 3 mps 757 mmHg 90%
    08:00 -1°C° 0 mm 3 mps 758 mmHg 90%
    09:00 -1°C° 0 mm 3 mps 758 mmHg 90%
    10:00 0°C° 0 mm 3 mps 758 mmHg 90%
    11:00 +1°C° 0 mm 3 mps 758 mmHg 90%
    12:00 +2°C° 0 mm 3 mps 757 mmHg 90%
    13:00 +2°C° 0 mm 3 mps 757 mmHg 91%
    14:00 +2°C° 0 mm 3 mps 757 mmHg 92%
    15:00 +2°C° 0 mm 3 mps 756 mmHg 93%
    16:00 +1°C° 0.2 mm 4 mps 756 mmHg 93%
    17:00 +1°C° 0.2 mm 4 mps 755 mmHg 93%
    18:00 +1°C° 0.2 mm 5 mps 754 mmHg 94%
    19:00 +2°C° 0.5 mm 5 mps 754 mmHg 93%
    20:00 +2°C° 0.5 mm 6 mps 753 mmHg 93%
    21:00 +3°C° 0.5 mm 6 mps 752 mmHg 93%
    22:00 +3°C° 0.7 mm 6 mps 751 mmHg 92%
    23:00 +3°C° 0.7 mm 6 mps 751 mmHg 92%
    Show more